Satellite: FALCON
Catalog number: 30776
Epoch time: 10211.04036157
Element set: 881
Inclination: 035.4323 deg
RA of node: 144.1096 deg
Eccentricity: 0.0001070
Arg of perigee: 247.2813 deg
Mean anomaly: 112.7796 deg
Mean motion: 15.03731875 rev/day
Decay rate: 7.27e-06 rev/day^2
Epoch rev: 18651
Checksum: 270
Satellite: MAST
Catalog number: 31126
Epoch time: 10209.59237586
Element set: 0925
Inclination: 097.9359 deg
RA of node: 249.4581 deg
Eccentricity: 0.0095666
Arg of perigee: 097.3456 deg
Mean anomaly: 263.8619 deg
Mean motion: 14.53604808 rev/day
Decay rate: 2.3e-07 rev/day^2
Epoch rev: 17407
Checksum: 335
Satellite: CAPE1
Catalog number: 31130
Epoch time: 10209.06394437
Element set: 0945
Inclination: 097.9358 deg
RA of node: 246.2854 deg
Eccentricity: 0.0104040
Arg of perigee: 107.3307 deg
Mean anomaly: 253.9424 deg
Mean motion: 14.52202868 rev/day
Decay rate: 3.31e-06 rev/day^2
Epoch rev: 17359
Checksum: 285
Satellite: COMPASS
Catalog number: 32787
Epoch time: 10209.28960679
Element set: 0735
Inclination: 097.8923 deg
RA of node: 273.4782 deg
Eccentricity: 0.0016360
Arg of perigee: 148.0261 deg
Mean anomaly: 212.1916 deg
Mean motion: 14.81919373 rev/day
Decay rate: 5.86e-06 rev/day^2
Epoch rev: 12158
Checksum: 323
Satellite: AAUSAT2
Catalog number: 32788
Epoch time: 10209.62624064
Element set: 0729
Inclination: 097.8928 deg
RA of node: 273.9476 deg
Eccentricity: 0.0015981
Arg of perigee: 147.8300 deg
Mean anomaly: 212.3922 deg
Mean motion: 14.82065916 rev/day
Decay rate: 8.79e-06 rev/day^2
Epoch rev: 12164
Checksum: 328
Satellite: DO-64
Catalog number: 32789
Epoch time: 10209.69838449
Element set: 0748
Inclination: 097.8990 deg
RA of node: 274.5387 deg
Eccentricity: 0.0016386
Arg of perigee: 146.3269 deg
Mean anomaly: 213.8967 deg
Mean motion: 14.82227774 rev/day
Decay rate: 9.33e-06 rev/day^2
Epoch rev: 12165
Checksum: 374
Satellite: CO-66
Catalog number: 32791
Epoch time: 10209.18254145
Element set: 0730
Inclination: 097.8941 deg
RA of node: 273.3828 deg
Eccentricity: 0.0016384
Arg of perigee: 146.7635 deg
Mean anomaly: 213.4597 deg
Mean motion: 14.81695923 rev/day
Decay rate: 6.9e-07 rev/day^2
Epoch rev: 12152
Checksum: 327
Satellite: RS-30
Catalog number: 32953
Epoch time: 10210.86914435
Element set: 909
Inclination: 082.5013 deg
RA of node: 003.1306 deg
Eccentricity: 0.0019041
Arg of perigee: 012.8718 deg
Mean anomaly: 347.2847 deg
Mean motion: 12.43006888 rev/day
Decay rate: 1.0e-07 rev/day^2
Epoch rev: 9904
Checksum: 270
Satellite: TACSAT-3
Catalog number: 35001
Epoch time: 10210.72639035
Element set: 345
Inclination: 040.4562 deg
RA of node: 318.5197 deg
Eccentricity: 0.0022344
Arg of perigee: 321.8881 deg
Mean anomaly: 038.0354 deg
Mean motion: 15.42138472 rev/day
Decay rate: 4.490e-05 rev/day^2
Epoch rev: 6720
Checksum: 265
Satellite: PHARMSAT
Catalog number: 35002
Epoch time: 10210.66614138
Element set: 326
Inclination: 040.4704 deg
RA of node: 316.7328 deg
Eccentricity: 0.0025281
Arg of perigee: 324.9346 deg
Mean anomaly: 034.9810 deg
Mean motion: 15.42627659 rev/day
Decay rate: 4.399e-05 rev/day^2
Epoch rev: 6721
Checksum: 279
Satellite: HAWKSAT1
Catalog number: 35003
Epoch time: 10209.71041614
Element set: 348
Inclination: 040.4604 deg
RA of node: 316.0175 deg
Eccentricity: 0.0023564
Arg of perigee: 335.9357 deg
Mean anomaly: 024.0354 deg
Mean motion: 15.46045923 rev/day
Decay rate: 9.349e-05 rev/day^2
Epoch rev: 6714
Checksum: 267
Satellite: CP6
Catalog number: 35004
Epoch time: 10209.68348967
Element set: 345
Inclination: 040.4624 deg
RA of node: 314.9241 deg
Eccentricity: 0.0022385
Arg of perigee: 338.9135 deg
Mean anomaly: 021.0753 deg
Mean motion: 15.46999715 rev/day
Decay rate: 1.1431e-04 rev/day^2
Epoch rev: 6714
Checksum: 298
Satellite: AEROCUB3
Catalog number: 35005
Epoch time: 10209.64446964
Element set: 0397
Inclination: 040.4653 deg
RA of node: 310.4925 deg
Eccentricity: 0.0021020
Arg of perigee: 358.6152 deg
Mean anomaly: 001.4603 deg
Mean motion: 15.53714712 rev/day
Decay rate: 3.8014e-04 rev/day^2
Epoch rev: 06719
Checksum: 267
Satellite: CASTOR
Catalog number: 35694
Epoch time: 10210.73514875
Element set: 599
Inclination: 051.6290 deg
RA of node: 330.7188 deg
Eccentricity: 0.0006024
Arg of perigee: 339.7601 deg
Mean anomaly: 020.3092 deg
Mean motion: 16.13834798 rev/day
Decay rate: 2.68297e-03 rev/day^2
Epoch rev: 5790
Checksum: 315
Satellite: METEOR-M
Catalog number: 35865
Epoch time: 10210.99059917
Element set: 513
Inclination: 098.7550 deg
RA of node: 264.4777 deg
Eccentricity: 0.0001527
Arg of perigee: 248.3927 deg
Mean anomaly: 111.7083 deg
Mean motion: 14.21831100 rev/day
Decay rate: 1.76e-06 rev/day^2
Epoch rev: 4480
Checksum: 292
